Location: Passau
(48.5830°N, 13.4830°E)
Time: 20:42:18
(UTC+02:00)

S-56A Canister/Altair - Pass Details

Date: 20 May 2024
Orbit: 637 x 2489 km, 38.9° (Epoch: 15 June)

Event Time Altitude Azimuth Distance (km) Brightness Sun altitude
Rises 12:28:11 0° 269° (W) 4,419 11.3 60.7°
Reaches altitude 10° 12:32:06 10° 258° (WSW) 3,108 10.8 60.9°
Maximum altitude 12:37:47 25° 206° (SSW) 1,784 10.2 61.1°
Drops below altitude 10° 12:42:09 10° 152° (SSE) 2,328 10.6 61.3°
Sets 12:44:39 0° 138° (SE) 3,108 11.0 61.3°
